sat.trackr.live / text

‹ back to catalog

STARLINK-31791

NORAD 59637 · 2024-082G

PAYLOAD ACTIVE UNKNOWN

§ Identity

Operator
Country
US
Launch date
2024-05-03
Launch site
AFETR
Launch vehicle
Mass (kg)
RCS (m²)

Purposes: comms

External: N2YO · Heavens-Above · Gunter

§ Orbital elements

Epoch: 2026-09-20T23:49:08.307264Z

Period
94.27 min
Inclination
43.0034°
Eccentricity
0.0001417
Mean motion
15.27577974 rev/d
Perigee alt
482.1 km
Apogee alt
484.0 km
Semi-major
6,861.2 km
B*
1.8054e-5
RAAN
116.6101°
Arg perigee
265.8581°
Mean anomaly
94.2109°
Rev number
13,468

§ Raw data

STARLINK-317911 59637U 24082G   26263.99245726  .00000235  00000+0  18054-4 0  99902 59637  43.0034 116.6101 0001417 265.8581  94.2109 15.27577974134681

JSON: /api/v1/satellites/59637 · /tle

For live sub-satellite position, see the globe view (requires WebGL).

§ Visibility from observer

Set your observer location to see the next 7 days of passes ≥ 10°. The values pass through the URL so the page stays shareable.

No JS? Fill the form by hand. The geolocation button needs JavaScript.